Regional Weather Roundup
Issued by NWS

Home | Current Version | Previous Version | Graphics & Text | Print | Product List | Glossary On
Versions: 1 2 3 4 5 6 7 8 9 10 11 12 13 14 15 16 17 18 19 20 21 22 23 24 25 26 27 28 29 30 31 32 33 34 35 36 37 38 39 40 41 42 43 44 45 46 47 48 49 50
000
ASUS43 KMKX 280521
RWRWI

WISCONSIN REGIONAL WEATHER ROUNDUP
NATIONAL WEATHER SERVICE MILWAUKEE/SULLIVAN WI
1200 AM CDT WED JUN 28 2017

NOTE: "FAIR" INDICATES FEW OR NO CLOUDS BELOW 12,000 FEET WITH NO
SIGNIFICANT WEATHER AND/OR OBSTRUCTIONS TO VISIBILITY.

WIZ001-002-006>008-014>016-023>028-280600-
NORTHWEST WISCONSIN

CITY           SKY/WX    TMP DP  RH WIND       PRES   REMARKS
SUPERIOR ARPT  NOT AVBL
ASHLAND        CLEAR     59  48  67 S8        29.86S
HAYWARD        PTCLDY    62  46  55 S8        29.87F
SIREN          CLOUDY    61  47  59 CALM      29.85S
CUMBERLAND     CLOUDY    55  45  67 SE7       29.88R
RICE LAKE      CLOUDY    60  47  62 SE7       29.90R
CHETEK         CLOUDY    60  49  66 SE7       29.89S
LADYSMITH      CLOUDY    60  48  66 SE5       29.92S
EAU CLAIRE     CLOUDY    62  48  60 S8        29.88S
MENOMONIE      MOCLDY    58  49  73 E8        29.88S
NEW RICHMOND   CLOUDY    64  45  49 S9        29.85F
OSCEOLA        CLOUDY    65  46  49 S12       29.86F
$$

WIZ003>005-009-010-017-018-280600-
NORTH CENTRAL WISCONSIN

CITY           SKY/WX    TMP DP  RH WIND       PRES   REMARKS
MANITOWISH WTR CLEAR     53  50  88 S3        29.92S
ARBOR VITAE    CLEAR     57  49  74 S5        29.93S
WOODRUFF       CLEAR     57  49  74 S5        29.93S
RHINELANDER    CLEAR     57  50  77 SW6       29.95F
EAGLE RIVER    PTCLDY    57  46  66 S5        29.93F
LAND O LAKES   MOCLDY    57  48  72 S3        29.94F
PHILLIPS       CLOUDY    57  48  73 S8        29.91F
TOMAHAWK       NOT AVBL
MEDFORD        CLEAR     55  48  76 S6        29.94F
MERRILL        CLEAR     58  49  73 SW5       29.96S
$$

WIZ029-030-035-036-043>047-280600-
CENTRAL WISCONSIN

CITY           SKY/WX    TMP DP  RH WIND       PRES   REMARKS
WAUSAU           N/A    N/A N/A N/A MISG      29.96R
MOSINEE        CLEAR     54  50  87 S5        29.97F
MARSHFIELD     CLEAR     55  48  77 S6        29.95S
STEVENS POINT  CLEAR     53  49  87 CALM      29.98S
WAUPACA        CLEAR     57  53  88 CALM      29.99R
WAUTOMA        CLEAR     53  51  93 CALM      29.99S
WISC RAPIDS    CLEAR     57  48  72 S6        29.98S
CAMP DOUGLAS   CLEAR     51  48  88 SE5       29.96S
$$

WIZ011>013-019>022-031-037>040-048>050-280600-
NORTHEAST WISCONSIN

CITY           SKY/WX    TMP DP  RH WIND       PRES   REMARKS
ANTIGO         CLEAR     55  49  78 SW7       29.97F
SHAWANO        PTCLDY    61  50  67 CALM      29.97R
OCONTO         MOCLDY    60  49  67 CALM      29.96S
STURGEON BAY     N/A     60  51  72 S8        29.98R
GREEN BAY      CLEAR     59  54  83 S6        29.98S
MANITOWOC      CLEAR     61  50  67 S7        30.00R
APPLETON       CLEAR     59  46  63 SW9       29.98R
CLINTONVILLE   CLEAR     55  48  76 SW5       29.97S
OSHKOSH        CLEAR     60  50  69 S7        29.99R
$$

WIZ032>034-041-042-053>061-280600-
SOUTHWEST WISCONSIN

CITY           SKY/WX    TMP DP  RH WIND       PRES   REMARKS
LA CROSSE      CLEAR     69  49  48 S10       29.90F
SPARTA         CLEAR     56  49  76 SE8       29.94F
VIROQUA        CLEAR     61  48  62 SE9       29.96F
BOSCOBEL       CLEAR     55  52  89 CALM      29.97S
PRAIRIE DU CHI MOCLDY    61  47  59 E5        29.96S
PLATTEVILLE    CLEAR     58  49  72 SE8       30.00S
$$

WIZ056-057-062-063-064-067-068-280600-
SOUTH CENTRAL WISCONSIN

CITY           SKY/WX    TMP DP  RH WIND       PRES   REMARKS
REEDSBURG      PTCLDY    60  48  66 S5        29.98S
BARABOO/DELLS  PTCLDY    55  47  73 SW7       29.99S
LONE ROCK      CLEAR     56  50  80 CALM      29.99R
MINERAL POINT  CLEAR     59  50  72 SE6       30.00R
MADISON        CLEAR     64  48  56 S8        30.00R
MIDDLETON      CLEAR     59  48  68 SW3       30.01R
WATERTOWN      NOT AVBL
MONROE         CLEAR     59  45  58 S6        30.01R
JANESVILLE     CLEAR     59  46  63 CALM      30.01S
$$

WIZ051-052-058>065-066-070>072-280600-
SOUTHEAST WISCONSIN

CITY           SKY/WX    TMP DP  RH WIND       PRES   REMARKS
MILWAUKEE      PTCLDY    62  49  62 S6        30.02R
WAUKESHA       CLEAR     59  46  63 S6        30.03S
MILWAUKEE/TIMM PTCLDY    61  45  55 S6        30.03R
RACINE         PTCLDY    60  50  69 S3        30.04S
KENOSHA        CLEAR     60  49  66 S6        30.03R
FOND DU LAC    CLEAR     59  48  67 S6        30.00R
SHEBOYGAN      CLEAR     55  52  89 SW5       30.00S
WEST BEND      CLEAR     55  50  82 S3        30.01S
JUNEAU         CLEAR     59  48  68 CALM      30.02S
$$

LSZ147-162-280600-
LAKE SUPERIOR

STATION/POSITION TIME  TEMP    WIND        PRES    WAVE
                       AIR SEA DIR/SP/G            HT/PER
                 (UTC) (F)     (DEG/KT/KT) (MB)    (FT/S)
W MID LAKE BUOY  0450   47 39  210/  8/ 10 1010.7R   0
DEVILS ISLAND    0500   65     190/  9/ 14 1010.0S
SAXON HARBOR     0430   58     210/  4/  6 1010.8F
$$

LMZ867-665-643>646-280600-
LAKE MICHIGAN

STATION/POSITION TIME  TEMP    WIND        PRES    WAVE
                       AIR SEA DIR/SP/G            HT/PER
                 (UTC) (F)     (DEG/KT/KT) (MB)    (FT/S)
CHAMBERS ISLAND  0440   65     180/  4/  9 1013.9R
S GREEN BAY BUOY 0500   67     200/ 12/ 12 1014.4
N MID LAKE BUOY  0450   57 55  190/ 14/ 14 1015.1R   3/ 5
NORTHPORT PIER   0440   60     170/  2/  8 1014.2S
KEWAUNEE LAKESHO 0454   54     180/  5/  6 1015.0R
SHEBOYGAN LAKESH 0500   60     190/  9/ 10 1015.7R
PORT WASHINGTON  0430   56      CALM  /  2 1016.9S
ATWATER BUOY     0439   62 57  180/ 10/ 12 1016.6R
MILWAUKEE LAKESH 0500   64     210/  8/  9   N/A
S MID LAKE BUOY  0450   64 61  150/ 10/ 12 1017.1R   1/ 3
KENOSHA   LAKESH 0500   61     170/  7/  8 1016.6
$$

TC  - TEMPERATURE IN CELSIUS
VSB - VISIBILITY IN STATUTE MILES
WCI - WIND CHILL INDEX
HX  - HEAT INDEX





USA.gov is the U.S. government's official web portal to all federal, state and local government web resources and services.